Flag for U.S.A. Weather past 2 weeks in Bismarck, North Dakota, U.S.A.

Now
29 °F

Ice fog.


Feels Like: 20 °F
Forecast: 28 / 63 °F
Wind: 9 mph from Southeast

Location: Bismarck Municipal Airport

Current Time: Mar 28, 2015 at 6:39:22 AM

Latest Report: Mar 28, 2015 at 5:52 AM


Visibility: 0 mi

Pressure: 30.02 "Hg

Humidity: 100%

Dew point: 29 °F

Location of BismarckLocation

Historic Weather in Bismarck — Graph

°F

Bismarck temperature yesterday

Maximum temperature yesterday: 50 °F (at 5:52 PM)
Minimum temperature yesterday: 25 °F (at 12:52 AM)
Average temperature yesterday: 34 °F

Past Weeks' High & Low Weather Summary

 TemperatureHumidityPressure
High72 °F (Mar 15, 1:52 PM)100% (Mar 28, 2:52 AM)30.65 "Hg (Mar 28, 2:52 AM)
Low18 °F (Mar 17, 7:52 AM)17% (Mar 14, 3:52 PM)29.57 "Hg (Mar 24, 1:52 PM)
Average37 °F66%30.13 "Hg
* Reported Mar 13 4:52 AM — Mar 28 4:52 AM, Bismarck, Weather by CustomWeather, © 2015

Note: Actual official high and low records may vary slightly from our data, if they occured in-between our weather recording intervals... More about our weather records

Advertising

Bismarck weather history for previous 24 hours

 ConditionsComfort  
Time TempWeatherWind HumidityBarometerVisibility
4:52 AM
Sat, Mar 28
30 °FIce fog.12 mph100%30.02 "Hg5 mi
4:00 AM31 °FIce fog.9 mph100%29.99 "Hg1 mi
3:02 AM30 °FIce fog.7 mph100%29.98 "Hg1 mi
2:52 AM30 °FIce fog.5 mph100%30.03 "Hg1 mi
1:52 AM28 °FClear.8 mph96%30.03 "Hg10 mi
12:52 AM30 °FPassing clouds.7 mph92%30.02 "Hg10 mi
11:52 PM
Fri, Mar 27
33 °FOvercast.9 mph88%30.01 "Hg10 mi
10:52 PM34 °FOvercast.8 mph85%30.01 "Hg10 mi
9:52 PM35 °FPassing clouds.7 mph85%30.00 "Hg10 mi
8:52 PM41 °FPassing clouds.9 mph74%29.97 "Hg10 mi
7:52 PM45 °FPassing clouds.6 mph65%29.96 "Hg10 mi
6:52 PM50 °FSunny.6 mph54%29.94 "Hg10 mi
5:52 PM50 °FPassing clouds.9 mph54%29.93 "Hg10 mi
4:52 PM46 °FOvercast.10 mph58%29.93 "Hg10 mi
3:52 PM48 °FOvercast.9 mph54%29.94 "Hg10 mi
2:52 PM44 °FPartly sunny.12 mph58%29.98 "Hg10 mi
1:52 PM38 °FMostly cloudy.10 mph68%30.01 "Hg10 mi
12:52 PM33 °FOvercast.13 mph82%30.05 "Hg10 mi
11:52 AM30 °FOvercast.14 mph79%30.09 "Hg10 mi
10:52 AM27 °FOvercast.18 mph85%30.11 "Hg10 mi
9:59 AM26 °FLight snow. Cloudy.13 mph81%30.09 "Hg2 mi
8:59 AM25 °FLight snow. Overcast.17 mph78%30.10 "Hg2 mi
7:52 AM26 °FMostly cloudy.14 mph66%30.19 "Hg10 mi
6:52 AM26 °FOvercast.13 mph63%30.21 "Hg10 mi
Weather by CustomWeather, © 2015

See weather overviewHow to use our weather pages